sat.trackr.live / text

‹ back to catalog

GEN1A-2

NORAD 69005 · 2026-100AB

PAYLOAD ACTIVE UNKNOWN

§ Identity

Operator
Country
US
Launch date
2026-05-03
Launch site
AFWTR
Launch vehicle
Mass (kg)
RCS (m²)

External: N2YO · Heavens-Above · Gunter

§ Orbital elements

Epoch: 2026-09-19T23:41:35.867616Z

Period
94.69 min
Inclination
97.3897°
Eccentricity
0.0006617
Mean motion
15.20814519 rev/d
Perigee alt
498.8 km
Apogee alt
507.9 km
Semi-major
6,881.5 km
B*
1.0128e-4
RAAN
159.0330°
Arg perigee
57.4210°
Mean anomaly
302.7664°
Rev number
2,122

§ Raw data

GEN1A-21 69005U 26100AB  26262.98722069  .00002166  00000+0  10128-3 0  99992 69005  97.3897 159.0330 0006617  57.4210 302.7664 15.20814519 21226

JSON: /api/v1/satellites/69005 · /tle

For live sub-satellite position, see the globe view (requires WebGL).

§ Visibility from observer

Set your observer location to see the next 7 days of passes ≥ 10°. The values pass through the URL so the page stays shareable.

No JS? Fill the form by hand. The geolocation button needs JavaScript.